| time (UTC) | temp C | wind direction | speed KPH | gust KPH | rain 1hr cm | rain 24hr cm | rain mn cm | humidity % | barometer mb |
| 20260906191551 | 25 | 237 | 3.2 | 4.8 | 0.00 | 0.00 | 0.00 | 57 | 1021.3 |
| 20260906190127 | 25 | 237 | 0.0 | 6.4 | 0.00 | 0.00 | 0.00 | 57 | 1021.4 |
| 20260906184546 | 25 | 0 | 1.6 | 8.0 | 0.00 | 0.00 | 0.00 | 57 | 1021.6 |
| 20260906183051 | 25 | 0 | 0.0 | 6.4 | 0.00 | 0.00 | 0.00 | 58 | 1021.7 |
| 20260906181544 | 24 | 0 | 0.0 | 1.6 | 0.00 | 0.00 | 0.00 | 58 | 1022.0 |
| 20260906180044 | 25 | 237 | 0.0 | 1.6 | 0.00 | 0.00 | 0.00 | 58 | 1021.8 |
| 20260906174548 | 26 | 237 | 1.6 | 6.4 | 0.00 | 0.00 | 0.00 | 56 | 1021.9 |
| 20260906173053 | 25 | 237 | 0.0 | 3.2 | 0.00 | 0.00 | 0.00 | 58 | 1021.9 |
| 20260906171547 | 23 | 237 | 0.0 | 3.2 | 0.00 | 0.00 | 0.00 | 64 | 1021.8 |
| 20260906170046 | 22 | 0 | 0.0 | 0.0 | 0.00 | 0.00 | 0.00 | 65 | 1021.9 |
| 20260906164551 | 22 | 0 | 0.0 | 0.0 | 0.00 | 0.00 | 0.00 | 63 | 1022.0 |
| 20260906163046 | 23 | 237 | 0.0 | 1.6 | 0.00 | 0.00 | 0.00 | 61 | 1022.0 |
| 20260906161543 | 23 | 237 | 0.0 | 3.2 | 0.00 | 0.00 | 0.00 | 60 | 1022.1 |
| 20260906160047 | 22 | 237 | 0.0 | 3.2 | 0.00 | 0.00 | 0.00 | 62 | 1022.2 |
| 20260906154544 | 22 | 0 | 0.0 | 3.2 | 0.00 | 0.00 | 0.00 | 62 | 1022.1 |
| 20260906153045 | 22 | 237 | 0.0 | 1.6 | 0.00 | 0.00 | 0.00 | 65 | 1022.3 |
| 20260906151543 | 21 | 237 | 1.6 | 3.2 | 0.00 | 0.00 | 0.00 | 65 | 1022.6 |
| 20260906150047 | 21 | 237 | 0.0 | 3.2 | 0.00 | 0.00 | 0.00 | 64 | 1022.6 |
| 20260906144546 | 20 | 237 | 0.0 | 3.2 | 0.00 | 0.00 | 0.00 | 65 | 1022.5 |
| 20260906143044 | 20 | 237 | 0.0 | 3.2 | 0.00 | 0.00 | 0.00 | 68 | 1022.6 |
| 20260906141543 | 18 | 0 | 0.0 | 1.6 | 0.00 | 0.00 | 0.00 | 71 | 1022.7 |
| 20260906140051 | 17 | 0 | 0.0 | 1.6 | 0.00 | 0.00 | 0.00 | 79 | 1022.6 |
| 20260906134545 | 16 | 237 | 0.0 | 1.6 | 0.00 | 0.00 | 0.00 | 78 | 1022.5 |
| 20260906133100 | 13 | 0 | 0.0 | 0.0 | 0.00 | 0.00 | 0.00 | 96 | 1022.5 |
| 20260906131546 | 11 | 0 | 0.0 | 0.0 | 0.00 | 0.00 | 0.00 | 96 | 1022.3 |
| 20260906130050 | 10 | 0 | 0.0 | 0.0 | 0.00 | 0.00 | 0.00 | 96 | 1022.2 |
| 20260906124551 | 8 | 0 | 0.0 | 0.0 | 0.00 | 0.00 | 0.00 | 96 | 1022.4 |
| 20260906123047 | 7 | 0 | 0.0 | 0.0 | 0.00 | 0.00 | 0.00 | 96 | 1022.3 |
| 20260906121543 | 6 | 0 | 0.0 | 0.0 | 0.00 | 0.00 | 0.00 | 95 | 1022.2 |
| 20260906120049 | 6 | 0 | 0.0 | 0.0 | 0.00 | 0.00 | 0.00 | 95 | 1022.2 |
| 20260906114546 | 6 | 0 | 0.0 | 0.0 | 0.00 | 0.00 | 0.00 | 95 | 1022.0 |
| 20260906113045 | 6 | 0 | 0.0 | 0.0 | 0.00 | 0.00 | 0.00 | 95 | 1021.8 |
| 20260906111552 | 6 | 0 | 0.0 | 0.0 | 0.00 | 0.00 | 0.00 | 95 | 1021.7 |
| 20260906110056 | 6 | 0 | 0.0 | 0.0 | 0.00 | 0.00 | 0.00 | 95 | 1021.6 |
| 20260906104546 | 6 | 0 | 0.0 | 0.0 | 0.00 | 0.00 | 0.00 | 95 | 1021.5 |
| 20260906103044 | 6 | 0 | 0.0 | 0.0 | 0.00 | 0.00 | 0.00 | 95 | 1021.5 |
| 20260906101554 | 6 | 0 | 0.0 | 0.0 | 0.00 | 0.00 | 0.00 | 95 | 1021.6 |
| 20260906100050 | 6 | 0 | 0.0 | 0.0 | 0.00 | 0.00 | 0.00 | 94 | 1021.6 |
| 20260906094603 | 6 | 0 | 0.0 | 0.0 | 0.00 | 0.00 | 0.00 | 94 | 1021.6 |
| 20260906093054 | 6 | 0 | 0.0 | 0.0 | 0.00 | 0.00 | 0.00 | 94 | 1021.6 |
| 20260906091547 | 6 | 0 | 0.0 | 0.0 | 0.00 | 0.00 | 0.00 | 94 | 1021.7 |
| 20260906090110 | 7 | 0 | 0.0 | 0.0 | 0.00 | 0.00 | 0.00 | 94 | 1021.5 |
| 20260906084552 | 7 | 0 | 0.0 | 0.0 | 0.00 | 0.00 | 0.00 | 94 | 1021.5 |
| 20260906083050 | 7 | 0 | 0.0 | 0.0 | 0.00 | 0.00 | 0.00 | 94 | 1021.6 |
| 20260906081546 | 7 | 0 | 0.0 | 0.0 | 0.00 | 0.00 | 0.00 | 94 | 1021.4 |
| 20260906080044 | 7 | 0 | 0.0 | 0.0 | 0.00 | 0.00 | 0.00 | 94 | 1021.5 |
| 20260906074551 | 7 | 0 | 0.0 | 0.0 | 0.00 | 0.03 | 0.00 | 94 | 1021.5 |
| 20260906073049 | 7 | 0 | 0.0 | 0.0 | 0.00 | 0.03 | 0.00 | 94 | 1021.5 |
| 20260906071544 | 7 | 0 | 0.0 | 0.0 | 0.00 | 0.03 | 0.00 | 94 | 1021.2 |
| 20260906070052 | 8 | 0 | 0.0 | 0.0 | 0.00 | 0.03 | 0.00 | 94 | 1021.4 |
| 20260906064548 | 8 | 0 | 0.0 | 0.0 | 0.00 | 0.03 | 0.00 | 94 | 1021.2 |
| 20260906063051 | 8 | 0 | 0.0 | 0.0 | 0.00 | 0.03 | 0.00 | 94 | 1021.2 |
| 20260906061549 | 8 | 0 | 0.0 | 0.0 | 0.00 | 0.03 | 0.00 | 94 | 1021.0 |
| 20260906060053 | 8 | 0 | 0.0 | 0.0 | 0.00 | 0.03 | 0.00 | 93 | 1021.0 |
| 20260906054547 | 9 | 0 | 0.0 | 0.0 | 0.00 | 0.03 | 0.00 | 93 | 1020.9 |
| 20260906053055 | 9 | 0 | 0.0 | 0.0 | 0.00 | 0.03 | 0.00 | 93 | 1020.7 |
| 20260906051543 | 9 | 0 | 0.0 | 0.0 | 0.00 | 0.03 | 0.00 | 93 | 1021.0 |
| 20260906050044 | 10 | 0 | 0.0 | 0.0 | 0.00 | 0.03 | 0.00 | 93 | 1020.8 |
| 20260906044547 | 10 | 0 | 0.0 | 0.0 | 0.00 | 0.03 | 0.00 | 93 | 1020.6 |
| 20260906043043 | 10 | 0 | 0.0 | 0.0 | 0.00 | 0.03 | 0.00 | 93 | 1020.8 |
| 20260906041552 | 10 | 0 | 0.0 | 0.0 | 0.00 | 0.03 | 0.00 | 92 | 1020.7 |
| 20260906040048 | 11 | 0 | 0.0 | 0.0 | 0.00 | 0.03 | 0.00 | 92 | 1020.5 |
| 20260906034545 | 11 | 0 | 0.0 | 0.0 | 0.00 | 0.03 | 0.03 | 92 | 1020.3 |
| 20260906033046 | 11 | 0 | 0.0 | 0.0 | 0.00 | 0.03 | 0.03 | 92 | 1020.3 |
| 20260906031551 | 12 | 0 | 0.0 | 0.0 | 0.00 | 0.03 | 0.03 | 91 | 1020.2 |
| 20260906030051 | 12 | 0 | 0.0 | 0.0 | 0.00 | 0.03 | 0.03 | 91 | 1020.3 |
| 20260906024605 | 12 | 0 | 0.0 | 0.0 | 0.00 | 0.03 | 0.03 | 90 | 1020.2 |
| 20260906023050 | 12 | 0 | 0.0 | 0.0 | 0.00 | 0.03 | 0.03 | 89 | 1020.1 |
| 20260906021553 | 13 | 0 | 0.0 | 0.0 | 0.00 | 0.03 | 0.03 | 89 | 1019.9 |
| 20260906020050 | 13 | 0 | 0.0 | 0.0 | 0.00 | 0.03 | 0.03 | 87 | 1019.9 |
| 20260906014550 | 14 | 0 | 0.0 | 0.0 | 0.00 | 0.03 | 0.03 | 86 | 1019.9 |
| 20260906013045 | 15 | 0 | 0.0 | 0.0 | 0.00 | 0.03 | 0.03 | 84 | 1019.9 |
| 20260906011556 | 15 | 0 | 0.0 | 0.0 | 0.00 | 0.03 | 0.03 | 82 | 1020.0 |
| 20260906010108 | 16 | 0 | 0.0 | 0.0 | 0.00 | 0.03 | 0.03 | 80 | 1019.9 |
| 20260906004551 | 16 | 0 | 0.0 | 0.0 | 0.00 | 0.03 | 0.03 | 78 | 1019.8 |
| 20260906003047 | 17 | 0 | 0.0 | 0.0 | 0.00 | 0.03 | 0.03 | 75 | 1019.8 |
| 20260906001600 | 18 | 0 | 0.0 | 0.0 | 0.00 | 0.03 | 0.03 | 72 | 1019.9 |
| 20260906000042 | 19 | 0 | 0.0 | 0.0 | 0.00 | 0.03 | 0.03 | 67 | 1019.6 |
| 20260905234548 | 20 | 0 | 0.0 | 3.2 | 0.00 | 0.03 | 0.03 | 64 | 1019.7 |
| 20260905233043 | 21 | 0 | 0.0 | 4.8 | 0.00 | 0.03 | 0.03 | 62 | 1019.6 |
| 20260905231546 | 21 | 0 | 0.0 | 1.6 | 0.00 | 0.03 | 0.03 | 61 | 1019.5 |
| 20260905230059 | 22 | 237 | 0.0 | 6.4 | 0.00 | 0.03 | 0.03 | 59 | 1019.6 |
| 20260905224546 | 22 | 237 | 0.0 | 4.8 | 0.00 | 0.03 | 0.03 | 58 | 1019.6 |
| 20260905223051 | 22 | 237 | 0.0 | 6.4 | 0.00 | 0.03 | 0.03 | 57 | 1019.5 |
| 20260905221551 | 23 | 237 | 0.0 | 8.0 | 0.00 | 0.03 | 0.03 | 55 | 1019.6 |
| 20260905220046 | 23 | 0 | 0.0 | 4.8 | 0.00 | 0.03 | 0.03 | 55 | 1019.5 |
| 20260905214547 | 24 | 237 | 0.0 | 3.2 | 0.00 | 0.03 | 0.03 | 54 | 1019.4 |
| 20260905213052 | 25 | 237 | 0.0 | 3.2 | 0.00 | 0.03 | 0.03 | 52 | 1019.5 |
| 20260905211548 | 24 | 237 | 0.0 | 4.8 | 0.00 | 0.03 | 0.03 | 54 | 1019.4 |
| 20260905210052 | 24 | 237 | 0.0 | 3.2 | 0.00 | 0.03 | 0.03 | 55 | 1019.2 |
| 20260905204545 | 25 | 237 | 0.0 | 3.2 | 0.00 | 0.03 | 0.03 | 51 | 1019.1 |
| 20260905203059 | 25 | 237 | 0.0 | 4.8 | 0.00 | 0.03 | 0.03 | 53 | 1018.9 |
| 20260905201555 | 25 | 0 | 0.0 | 3.2 | 0.00 | 0.03 | 0.03 | 51 | 1019.3 |
| 20260905200042 | 25 | 237 | 0.0 | 3.2 | 0.00 | 0.03 | 0.03 | 52 | 1019.3 |
| 20260905194548 | 24 | 237 | 0.0 | 6.4 | 0.00 | 0.03 | 0.03 | 52 | 1019.3 |
| 20260905193045 | 25 | 237 | 0.0 | 3.2 | 0.00 | 0.03 | 0.03 | 51 | 1019.2 |